Temperature
15 15 15 15 15 15 15 15 15 16 16 16 16 16 16 16 16 15 15 15 15 15 15 15 14 14 14 14 14 14 14 15 15 15 15 15 15 15
15 15 15 15 15 15 15 15 15 15 16 16 16 16 16 16 15 15 15 15 15 15 15 14 14 14 14 14 14 14 14 14 14 15 15 15 15 15
14 15 15 15 14 14 14 14 14 15 15 16 16 16 16 16 15 15 15 15 15 15 15 14 14 14 14 14 14 14 14 14 14 14 14 14 14 14
14 14 14 14 14 14 14 14 14 14 15 15 15 15 15 15 15 15 15 15 15 15 14 14 14 14 14 14 14 14 14 14 14 14 14 14 14 14
14 14 14 14 14 14 14 13 14 14 14 14 15 15 15 15 15 14 14 14 14 14 14 14 14 14 14 14 14 14 14 14 14 14 14 14 14 14
14 13 13 13 13 13 13 13 13 13 13 14 14 14 15 15 15 14 14 14 14 14 14 14 14 14 14 14 14 14 14 14 14 14 14 14 14 14
14 13 13 13 13 13 13 13 13 13 13 13 13 14 14 14 14 14 14 14 14 14 14 14 14 14 14 14 14 14 14 14 14 14 14 14 14 14
14 14 13 13 13 13 13 13 12 12 13 13 13 13 13 14 14 14 14 13 14 14 14 14 14 14 14 14 14 14 14 14 14 14 14 14 14 14
14 14 14 14 13 13 13 13 13 13 13 13 13 13 13 13 14 14 14 14 14 14 14 14 14 14 14 14 14 13 13 13 13 13 13 13 13 13
14 14 14 14 14 14 13 13 13 13 13 13 13 13 13 13 13 14 14 13 13 13 13 13 13 14 14 14 14 13 13 13 13 13 13 13 13 13
14 14 14 14 14 14 14 14 13 13 13 13 13 13 13 13 13 13 13 13 13 14 13 13 13 13 13 14 14 13 13 13 13 13 13 13 13 12
14 14 14 14 14 14 14 14 14 14 13 13 13 13 13 13 13 13 13 13 13 13 14 13 13 13 13 14 14 14 14 13 13 13 13 13 12 12
14 14 14 14 14 14 14 14 14 13 13 13 13 13 13 13 13 13 13 13 13 13 13 13 13 13 12 13 13 14 14 14 13 13 13 13 12 12
13 13 13 13 13 13 13 13 13 13 13 13 13 13 13 13 13 13 13 13 13 12 12 12 12 12 12 12 12 13 13 13 13 13 13 13 13 12
13 13 13 13 13 13 13 13 13 13 13 13 13 12 12 12 12 12 12 12 12 12 12 12 12 12 11 11 12 12 12 12 12 12 12 12 12 12
12 12 12 12 12 12 12 12 12 12 12 12 12 12 12 12 12 12 12 11 11 11 11 11 11 11 11 11 11 11 11 11 11 12 12 12 12 12
12 12 12 12 12 12 12 12 12 12 12 12 11 11 11 11 11 11 11 11 11 11 11 11 11 10 10 10 10 10 10 10 10 10 10 11 11 11
11 11 11 11 11 11 11 11 11 11 11 11 11 11 11 11 11 11 11 11 11 11 11 10 10 10 10 10 10 10 10 10 10 10 10 10 11 11
11 11 11 11 11 11 11 11 11 11 11 10 10 10 10 10 10 10 10 10 10 10 10 10 10 10 10 10 10 10 10 10 10 10 10 10 10 10
10 10 10 10 10 10 10 10 10 10 10 10 10 10 10 10 10 10 10 10 10 10 10 10 9 9 9 9 9 10 10 9 9 9 9 9 9 9
10 10 10 10 10 10 10 10 9 9 9 9 9 9 9 9 9 9 9 9 9 9 9 9 9 9 9 9 9 9 9 9 9 9 9 9 9 9
9 9 9 9 9 9 9 9 9 9 9 9 9 9 9 9 9 9 9 9 9 9 9 9 9 9 8 8 8 9 9 8 8 8 8 8 8 8
9 9 9 9 9 9 9 9 9 9 9 9 8 8 8 8 8 8 8 8 8 8 8 8 8 8 8 8 8 8 8 8 8 8 8 8 8 8
Wind_Speed
8 9 7 6 6 6 4 4 5 5 7 6 5 6 10 13 16 15 14 13 11 9 6 4 2 1 2 3 4 4 5 5 5 6 6 7 8 8
7 9 9 7 7 6 5 4 4 5 6 6 6 5 7 10 15 15 15 14 13 11 9 7 4 2 1 1 2 3 3 3 4 5 5 7 8 8
6 8 9 8 7 7 6 5 3 3 4 3 3 3 7 7 8 12 14 13 13 13 12 10 8 5 3 2 2 2 2 1 1 2 3 5 6 7
5 6 6 6 8 7 7 6 4 3 3 3 3 3 5 7 7 7 8 11 13 14 14 13 10 8 6 4 3 2 2 1 1 2 3 4 5 6
3 4 5 6 7 6 7 7 5 4 3 2 2 2 2 3 4 4 5 5 9 12 15 14 13 10 8 6 5 4 3 2 3 3 4 4 4 4
2 3 4 5 6 7 6 7 6 6 4 3 2 2 2 2 4 4 4 5 6 7 11 13 13 12 11 9 8 6 6 5 5 5 5 4 4 3
2 2 3 5 7 7 6 7 6 5 4 4 3 2 2 3 4 5 6 4 5 5 5 6 8 8 11 12 11 10 9 8 8 7 6 5 4 4
5 4 5 6 8 10 10 11 10 7 6 4 4 4 5 5 4 5 5 4 5 5 6 5 5 7 8 12 14 13 12 11 11 10 8 7 5 4
6 5 6 7 9 7 10 12 12 13 11 7 6 7 6 6 6 6 7 7 7 5 6 5 5 7 8 13 16 17 16 15 14 13 11 9 8 6
6 7 7 7 7 9 8 8 8 9 11 9 8 8 8 7 7 8 8 7 3 3 6 6 5 6 5 11 17 20 20 19 17 16 14 12 10 8
4 5 7 7 10 12 9 8 8 8 10 13 13 11 12 12 9 5 5 5 5 5 6 6 5 4 3 4 13 20 23 22 20 18 16 15 13 10
2 2 5 6 7 8 9 8 8 7 5 4 6 7 6 6 8 8 7 6 4 4 6 6 5 4 3 3 3 9 15 19 21 20 19 17 15 10
1 1 1 2 3 4 7 6 8 5 4 4 3 2 1 2 2 3 5 6 6 5 4 5 4 5 4 3 2 3 6 7 12 14 18 19 18 14
2 1 2 2 2 2 3 3 4 4 3 3 2 1 1 2 2 2 3 3 4 4 4 6 4 5 5 4 3 2 4 5 7 6 10 15 17 18
1 2 1 1 2 1 1 2 3 3 3 2 2 2 2 2 1 1 1 1 1 0 2 4 4 4 4 5 4 3 3 4 7 7 7 7 7 8
1 3 4 4 2 1 1 1 2 2 2 2 2 1 0 0 1 1 1 1 1 1 0 2 4 5 4 4 4 4 4 3 4 7 7 7 8 12
2 2 1 1 1 1 1 0 0 1 2 1 1 1 1 1 1 1 1 1 1 1 1 1 1 2 3 4 4 5 5 4 4 5 6 6 8 9
3 2 1 1 0 0 1 1 1 1 1 1 1 1 1 2 2 2 2 2 3 3 3 2 2 1 1 3 7 6 5 5 5 6 6 6 7 7
4 3 2 2 2 2 2 1 1 1 0 1 1 1 1 1 2 2 3 3 3 4 4 3 4 4 4 4 5 9 6 4 4 5 7 8 7 5
4 4 3 3 3 3 3 3 2 3 2 2 1 1 1 1 1 2 3 3 4 4 4 3 4 6 6 4 3 4 10 7 5 5 5 6 6 6
4 4 4 4 4 4 4 4 4 3 3 3 2 2 2 1 2 2 3 4 3 3 4 5 5 7 4 2 3 4 3 9 9 4 4 4 4 4
4 4 4 4 4 4 4 4 4 4 4 3 3 3 2 2 2 3 3 3 3 4 5 4 2 1 3 4 6 5 3 2 4 4 2 2 2 3
4 5 5 5 5 4 4 4 4 4 4 4 3 3 3 3 3 3 4 4 4 4 4 3 2 2 3 4 5 5 5 3 2 2 1 1 1 3
Wind_Direction
209 203 200 193 179 173 170 177 172 190 219 220 201 197 191 189 189 186 187 189 189 190 190 184 165 83 37 27 21 13 15 26 39 42 39 39 42 42
215 210 207 196 184 172 170 175 186 186 210 217 208 191 184 195 195 192 194 196 197 198 200 202 202 206 252 354 4 4 10 24 46 53 51 48 46 45
216 212 213 196 185 179 173 165 175 176 204 228 211 190 177 182 180 192 198 200 203 204 206 209 211 214 225 255 313 339 347 357 60 75 65 58 54 49
210 205 207 199 190 181 176 174 175 177 184 204 205 179 184 187 177 183 195 205 206 210 210 212 214 217 222 234 256 284 297 256 168 130 113 89 68 59
197 197 194 184 187 182 178 177 175 179 164 180 203 198 174 155 154 190 196 199 206 214 214 216 217 219 222 229 237 245 244 225 179 146 130 119 96 75
183 187 185 185 184 177 176 172 169 172 164 164 191 208 199 159 152 175 196 208 211 206 209 211 216 221 224 226 229 231 227 215 189 167 153 141 131 118
196 203 204 200 192 182 178 173 171 174 171 171 186 189 194 169 194 192 204 199 215 199 192 205 207 218 224 226 226 226 221 213 200 188 178 174 171 166
212 223 228 225 217 211 206 192 184 183 185 185 193 203 215 212 199 193 190 182 229 206 185 218 190 218 221 222 224 222 220 215 208 199 192 190 188 184
215 221 233 231 224 220 222 217 212 212 202 192 203 213 217 215 200 205 202 204 217 185 174 217 199 225 222 223 222 220 219 217 213 207 202 199 197 197
222 224 228 240 224 214 215 221 226 226 222 217 219 225 227 222 212 215 215 220 223 184 171 204 202 218 220 216 222 217 216 215 213 210 207 204 204 206
237 235 225 231 238 217 201 214 230 240 238 229 229 233 237 236 221 204 195 193 226 222 189 199 202 201 214 223 223 219 213 212 212 212 210 208 209 211
254 275 238 221 227 206 195 202 219 233 220 218 227 237 239 244 227 208 199 200 211 230 197 189 182 160 233 248 215 212 209 212 212 214 213 212 210 204
177 269 292 221 208 194 187 198 218 211 193 196 199 215 243 252 237 215 205 205 211 229 195 176 178 176 200 219 259 213 194 196 205 215 219 217 213 203
175 217 249 233 202 171 172 204 198 164 145 148 159 204 235 250 248 229 208 207 211 215 196 178 184 182 181 194 233 229 207 201 197 206 214 221 222 218
183 212 193 150 117 109 145 128 115 120 131 141 175 218 237 236 189 148 136 137 124 131 183 190 183 175 181 197 199 183 200 218 209 212 212 215 215 210
65 77 89 80 49 15 65 76 100 138 146 161 181 192 177 96 124 156 177 184 202 256 224 172 177 173 180 190 185 194 195 210 203 211 215 221 222 219
112 80 52 30 15 4 6 18 112 132 146 156 160 174 180 172 210 183 176 185 210 233 238 211 154 186 196 185 202 212 205 212 208 191 199 227 231 222
111 87 67 55 43 6 16 30 50 162 187 171 170 190 208 221 233 222 214 218 239 247 243 216 183 186 254 251 220 221 217 220 208 196 197 222 244 226
79 71 61 53 54 62 63 65 45 19 127 138 165 232 238 240 237 242 242 246 252 254 248 218 199 204 232 257 248 216 215 216 204 206 210 219 240 232
62 66 58 48 45 49 49 44 42 37 40 39 24 346 302 269 264 264 258 255 262 267 266 237 219 221 232 244 248 241 216 217 214 224 225 228 243 240
56 56 50 46 42 42 43 41 41 36 26 22 18 5 346 315 285 277 275 274 265 264 267 262 250 236 229 228 254 258 235 219 225 229 226 226 231 225
56 55 48 46 42 38 35 36 37 31 20 16 3 354 345 332 306 299 290 281 270 263 267 270 269 203 195 226 251 261 256 224 225 228 217 224 230 233
54 55 48 41 37 35 33 34 36 26 13 1 350 338 329 318 303 292 287 283 280 280 277 275 259 224 229 236 253 264 266 255 220 212 201 91 67 35
Height
1508 1510 1512 1515 1518 1521 1524 1527 1530 1530 1531 1533 1534 1536 1538 1540 1541 1542 1542 1542 1542 1542 1542 1542 1541 1540 1539 1538 1538 1538 1538 1537 1537 1537 1536 1535 1534 1534
1502 1504 1506 1509 1512 1515 1518 1521 1524 1527 1527 1529 1531 1533 1535 1537 1538 1540 1540 1541 1541 1541 1540 1540 1539 1538 1537 1537 1536 1536 1536 1536 1536 1535 1535 1534 1534 1533
1496 1498 1500 1503 1506 1509 1512 1515 1519 1521 1523 1526 1528 1530 1532 1533 1535 1537 1538 1538 1539 1539 1539 1538 1537 1537 1536 1535 1535 1534 1534 1534 1534 1534 1534 1533 1533 1532
1492 1493 1495 1498 1500 1503 1506 1509 1512 1515 1519 1521 1524 1526 1528 1530 1532 1533 1535 1536 1536 1536 1536 1536 1536 1535 1534 1534 1533 1533 1532 1532 1533 1532 1532 1532 1532 1531
1490 1491 1492 1494 1496 1498 1500 1503 1506 1510 1513 1517 1520 1522 1524 1526 1527 1529 1531 1532 1533 1533 1534 1534 1533 1533 1532 1532 1531 1530 1530 1530 1530 1530 1530 1530 1530 1530
1490 1490 1491 1492 1493 1494 1496 1498 1502 1504 1508 1512 1515 1518 1520 1522 1523 1524 1526 1527 1529 1530 1530 1531 1531 1530 1530 1529 1529 1528 1528 1527 1527 1527 1527 1528 1528 1527
1490 1490 1491 1491 1492 1493 1494 1496 1498 1500 1503 1506 1510 1513 1515 1517 1519 1520 1521 1523 1524 1525 1526 1527 1527 1527 1527 1527 1526 1525 1525 1525 1525 1524 1524 1525 1525 1524
1491 1491 1491 1491 1492 1493 1494 1495 1497 1499 1500 1503 1505 1508 1510 1513 1515 1516 1517 1517 1518 1520 1521 1522 1523 1523 1524 1524 1523 1523 1522 1522 1522 1521 1521 1521 1521 1521
1490 1491 1491 1491 1492 1493 1493 1495 1496 1497 1499 1501 1502 1503 1506 1508 1510 1511 1511 1511 1512 1515 1516 1516 1517 1518 1520 1520 1520 1520 1519 1519 1519 1518 1518 1518 1518 1518
1489 1490 1490 1491 1491 1492 1492 1493 1494 1495 1496 1498 1499 1500 1502 1503 1504 1506 1506 1507 1507 1508 1509 1510 1511 1513 1515 1515 1516 1516 1516 1516 1516 1515 1515 1515 1514 1514
1487 1488 1488 1489 1490 1490 1491 1491 1492 1493 1494 1494 1496 1497 1498 1499 1499 1500 1500 1501 1501 1502 1503 1504 1505 1507 1509 1510 1511 1512 1512 1512 1512 1512 1511 1511 1511 1511
1485 1486 1486 1487 1487 1488 1488 1488 1489 1490 1491 1491 1492 1493 1494 1494 1495 1495 1496 1496 1496 1497 1498 1499 1499 1502 1503 1504 1506 1507 1508 1508 1508 1508 1508 1507 1507 1507
1482 1483 1484 1485 1485 1485 1485 1486 1486 1487 1487 1488 1489 1490 1490 1491 1491 1491 1491 1491 1492 1492 1493 1494 1494 1496 1498 1499 1500 1502 1503 1504 1504 1504 1504 1503 1503 1503
1480 1481 1482 1482 1483 1483 1483 1483 1483 1484 1485 1485 1486 1487 1487 1487 1487 1487 1487 1487 1487 1488 1488 1489 1490 1491 1492 1493 1495 1496 1498 1499 1499 1500 1500 1500 1499 1499
1477 1478 1479 1480 1480 1480 1480 1480 1480 1481 1482 1483 1484 1484 1484 1484 1484 1484 1484 1484 1484 1484 1484 1485 1486 1486 1487 1488 1489 1490 1492 1493 1494 1495 1495 1495 1495 1495
1475 1476 1477 1477 1477 1478 1478 1478 1478 1479 1480 1480 1481 1481 1481 1481 1481 1481 1481 1480 1480 1480 1481 1481 1481 1482 1482 1483 1483 1484 1485 1486 1487 1489 1490 1490 1490 1490
1474 1474 1475 1475 1475 1475 1476 1476 1476 1477 1478 1478 1479 1479 1479 1479 1479 1478 1478 1478 1478 1478 1478 1478 1478 1478 1478 1478 1478 1478 1478 1479 1481 1482 1482 1483 1484 1485
1473 1473 1473 1473 1474 1474 1474 1475 1475 1476 1476 1477 1477 1477 1477 1477 1476 1476 1476 1475 1475 1475 1475 1475 1475 1474 1474 1474 1475 1474 1474 1474 1474 1475 1475 1475 1476 1478
1473 1473 1473 1473 1473 1473 1474 1474 1475 1475 1475 1475 1475 1475 1475 1474 1474 1474 1473 1473 1472 1472 1472 1471 1471 1471 1470 1470 1470 1470 1470 1469 1469 1469 1469 1469 1469 1470
1474 1474 1473 1473 1473 1474 1474 1474 1474 1474 1474 1474 1474 1473 1473 1472 1472 1471 1471 1470 1469 1469 1468 1468 1467 1467 1466 1466 1465 1465 1465 1464 1464 1463 1463 1463 1463 1463
1475 1475 1475 1475 1475 1475 1474 1474 1474 1473 1473 1473 1472 1471 1471 1470 1469 1469 1468 1467 1466 1465 1464 1464 1463 1463 1462 1461 1460 1459 1460 1459 1459 1458 1458 1457 1456 1456
1477 1477 1477 1476 1476 1475 1474 1474 1473 1472 1471 1471 1470 1469 1468 1467 1466 1465 1464 1463 1462 1461 1460 1459 1459 1458 1457 1456 1455 1454 1454 1454 1453 1452 1452 1451 1450 1449
1479 1479 1478 1477 1476 1475 1474 1473 1472 1471 1470 1469 1468 1467 1466 1464 1463 1462 1461 1460 1458 1457 1455 1454 1454 1453 1452 1451 1450 1449 1448 1447 1447 1446 1445 1445 1444 1444